SL-3 R/B

Last updated on Mon Oct 20 2025 00:02:14 GMT+0000 (Coordinated Universal Time)

1 19046U 88032B 25292.29299672 .00013080 00000+0 64201-3 0 9994 2 19046 97.5019 271.4398 0027580 10.9182 349.2644 15.17878700 30649
UTC large
Height (km)
Speed (km/s)
/
Latitude / Longitude
Inclination (degrees)
Orbital Period (minutes)
Azimuth
Elevation
Range (km)
Doppler Factor

Next 0 passes for location: London (51.5072 / 0.1276)

Sorry there are no passes over London.